Location: Fort Wayne
(41.1310°N, 85.1290°W)
Time: 01:23:51
(UTC-04:00)

Meteor 2-9 Rocket - Visible Passes

Search period start: 04 August 2015 00:00
Search period end: 14 August 2015 00:00
Orbit: 791 x 896 km, 81.3° (Epoch: 03 August)

Date Brightness Start Highest point End Pass type
(mag) Time Alt. Az. Time Alt. Az. Time Alt. Az.
04 Aug 4.8 01:40:15 50° NE 01:40:15 50° NE 01:44:34 10° NNE visible
04 Aug 6.0 03:22:08 18° WNW 03:22:23 18° WNW 03:26:00 10° NNW visible
05 Aug 5.0 01:26:21 44° NE 01:26:21 44° NE 01:30:26 10° NNE visible
05 Aug 5.9 03:08:13 20° WNW 03:08:13 20° WNW 03:12:10 10° NNW visible
06 Aug 5.2 01:12:26 38° NE 01:12:26 38° NE 01:16:17 10° NNE visible
06 Aug 5.8 02:54:18 23° WNW 02:54:18 23° WNW 02:58:18 10° NNW visible
07 Aug 5.3 00:58:31 34° NE 00:58:31 34° NE 01:02:07 10° NNE visible
07 Aug 5.7 02:40:23 25° WNW 02:40:23 25° WNW 02:44:24 10° NNW visible
08 Aug 5.5 00:44:35 30° ENE 00:44:35 30° ENE 00:47:56 10° NNE visible
08 Aug 5.6 02:26:26 28° WNW 02:26:26 28° WNW 02:30:27 10° NNW visible
09 Aug 5.6 00:30:38 26° ENE 00:30:38 26° ENE 00:33:44 10° NNE visible
09 Aug 5.5 02:12:29 30° NW 02:12:29 30° NW 02:16:31 10° N visible
10 Aug 5.8 00:16:40 23° ENE 00:16:40 23° ENE 00:19:31 10° NNE visible
10 Aug 5.5 01:58:32 33° NW 01:58:32 33° NW 02:02:32 10° N visible
11 Aug 5.9 00:02:41 21° ENE 00:02:41 21° ENE 00:05:15 10° NE visible
11 Aug 5.4 01:44:33 36° NW 01:44:33 36° NW 01:48:33 10° N visible
11 Aug 6.0 23:48:42 18° ENE 23:48:42 18° ENE 23:50:57 10° NE visible
12 Aug 5.3 01:30:33 39° NW 01:30:33 39° NW 01:34:32 10° N visible
12 Aug 6.1 23:34:42 16° ENE 23:34:42 16° ENE 23:36:37 10° NE visible
13 Aug 5.2 01:16:33 42° NNW 01:16:33 42° NNW 01:20:31 10° N visible
13 Aug 6.2 23:20:40 14° ENE 23:20:40 14° ENE 23:22:13 10° NE visible
